DW5342 Weather Reports


Display with metric or nautical units.
time (UTC)temp
F
wind
direction
speed
MPH
gust
MPH
rain 1hr
in
rain 24hr
in
rain mn
in
humidity
%
barometer
mb
20240420141530 61 133 0.0 3.0 0.00 0.00 0.00 100 1015.6
20240420140023 61 118 2.0 7.0 0.00 0.00 0.00 100 1015.5
20240420134522 61 47 3.0 8.0 0.00 0.00 0.00 100 1015.4
20240420133014 61 108 1.0 9.0 0.00 0.00 0.00 100 1015.2
20240420131509 61 62 2.0 7.0 0.00 0.00 0.00 100 1015.1
20240420130005 60 98 2.0 5.0 0.00 0.00 0.00 100 1015.2
20240420124604 60 74 1.0 3.0 0.00 0.00 0.00 100 1015.3
20240420123057 60 64 1.0 5.0 0.00 0.00 0.00 100 1015.3
20240420121607 59 233 0.0 1.0 0.00 0.00 0.00 100 1015.6
20240420120049 59 233 1.0 3.0 0.00 0.00 0.00 100 1015.7
20240420114551 58 174 0.0 2.0 0.00 0.00 0.00 100 1015.4
20240420113055 58 80 0.0 4.0 0.00 0.00 0.00 100 1015.2
20240420111534 58 79 0.0 3.0 0.00 0.00 0.00 100 1015.1
20240420110033 57 35 0.0 3.0 0.00 0.00 0.00 100 1015.1
20240420104525 57 89 1.0 5.0 0.00 0.00 0.00 100 1015.0
20240420103024 57 11 0.0 3.0 0.00 0.00 0.00 100 1014.9
20240420101518 56 58 2.0 4.0 0.00 0.00 0.00 100 1014.9
20240420100012 56 92 0.0 0.0 0.00 0.00 0.00 100 1014.8
20240420094512 56 92 0.0 0.0 0.00 0.00 0.00 100 1014.9
20240420093003 56 92 0.0 0.0 0.00 0.00 0.00 100 1015.0
20240420091600 56 93 0.0 0.0 0.00 0.00 0.00 100 1014.7
20240420090055 56 86 0.0 0.0 0.00 0.00 0.00 100 1014.6
20240420084550 56 77 0.0 4.0 0.00 0.00 0.00 100 1014.6
20240420083046 56 79 2.0 4.0 0.00 0.00 0.00 100 1014.6
20240420081551 57 81 1.0 4.0 0.00 0.00 0.00 100 1014.7
20240420080037 57 85 2.0 5.0 0.00 0.00 0.00 100 1014.6
20240420074533 57 62 1.0 4.0 0.00 0.00 0.00 100 1014.9
20240420073030 56 53 1.0 3.0 0.00 0.00 0.00 100 1014.9
20240420071524 56 32 1.0 4.0 0.00 0.00 0.00 100 1015.0
20240420070023 56 28 0.0 4.0 0.00 0.00 0.00 100 1015.1
20240420064515 56 56 1.0 3.0 0.00 0.00 0.00 100 1015.0
20240420063021 56 116 0.0 0.0 0.00 0.00 0.00 100 1015.3
20240420061508 56 116 0.0 0.0 0.00 0.00 0.00 100 1015.5
20240420060002 56 116 0.0 0.0 0.00 0.00 0.00 100 1015.5
20240420054557 56 116 0.0 0.0 0.00 0.00 0.00 100 1015.6
20240420053059 56 116 0.0 0.0 0.00 0.00 0.00 100 1015.8
20240420051553 56 116 0.0 2.0 0.00 0.00 0.00 100 1015.7
20240420050044 56 116 0.0 3.0 0.00 0.00 0.00 100 1015.8
20240420044540 56 116 0.0 2.0 0.00 0.00 0.00 100 1016.0
20240420043038 56 116 3.0 4.0 0.00 0.00 0.00 100 1016.1
20240420041535 56 102 2.0 4.0 0.00 0.00 0.00 100 1016.1
20240420040026 56 66 2.0 6.0 0.00 0.00 0.00 100 1016.3
20240420034523 56 115 2.0 6.0 0.00 0.00 0.00 100 1016.2
20240420033020 56 90 2.0 7.0 0.00 0.00 0.00 100 1016.3
20240420031517 56 103 5.0 8.0 0.00 0.00 0.00 100 1016.4
20240420030022 57 91 3.0 8.0 0.00 0.00 0.00 100 1016.7
20240420024506 57 104 5.0 9.0 0.00 0.00 0.00 100 1016.9
20240420023100 57 91 7.0 11.0 0.00 0.00 0.00 100 1016.7
20240420021556 57 111 4.0 11.0 0.00 0.00 0.00 100 1016.6
20240420020051 57 94 7.0 10.0 0.00 0.00 0.00 100 1016.7
20240420014547 57 108 7.0 10.0 0.00 0.00 0.00 100 1017.1
20240420013043 57 84 5.0 13.0 0.00 0.00 0.00 100 1017.1
20240420011537 57 71 3.0 12.0 0.00 0.00 0.00 100 1017.0
20240420010033 58 77 5.0 8.0 0.00 0.00 0.00 100 1016.7
20240420004529 58 62 4.0 12.0 0.00 0.00 0.00 100 1016.7
20240420003024 58 114 5.0 9.0 0.00 0.00 0.00 100 1016.5
20240420001520 59 99 6.0 9.0 0.00 0.00 0.00 100 1016.6
20240420000015 60 96 4.0 9.0 0.00 0.00 0.00 100 1016.4
20240419234511 60 96 7.0 11.0 0.00 0.00 0.00 100 1016.3
20240419233007 61 104 3.0 11.0 0.00 0.00 0.00 100 1016.2
20240419231502 62 94 5.0 11.0 0.00 0.00 0.00 100 1016.0
20240419230114 62 111 6.0 14.0 0.00 0.00 0.00 100 1015.5
20240419224553 63 114 7.0 14.0 0.00 0.00 0.00 100 1015.6
20240419223051 64 93 4.0 11.0 0.00 0.00 0.00 100 1015.7
20240419221549 64 108 7.0 11.0 0.00 0.00 0.00 100 1015.4
20240419220041 65 98 4.0 11.0 0.00 0.00 0.00 100 1015.4
20240419214541 65 129 5.0 13.0 0.00 0.00 0.00 100 1015.3
20240419213036 66 84 7.0 11.0 0.00 0.00 0.00 100 1015.3
20240419211530 67 76 9.0 13.0 0.00 0.00 0.00 100 1015.3
20240419210031 69 115 8.0 14.0 0.00 0.00 0.00 100 1015.4
20240419204519 69 116 11.0 15.0 0.00 0.00 0.00 100 1015.3
20240419203017 70 91 6.0 15.0 0.00 0.00 0.00 100 1015.4
20240419201510 70 81 5.0 12.0 0.00 0.00 0.00 100 1015.4
20240419200005 70 75 5.0 10.0 0.00 0.00 0.00 100 1015.6
20240419194605 69 70 5.0 13.0 0.00 0.00 0.00 100 1015.7
20240419193057 69 54 6.0 16.0 0.00 0.00 0.00 100 1015.7
20240419191613 69 88 5.0 12.0 0.00 0.00 0.00 100 1015.9
20240419190048 68 110 6.0 12.0 0.00 0.00 0.00 100 1016.1
20240419184543 68 66 9.0 15.0 0.00 0.00 0.00 100 1016.2
20240419183040 68 108 5.0 12.0 0.00 0.00 0.00 100 1016.5
20240419181535 67 95 7.0 12.0 0.00 0.00 0.00 100 1016.9
20240419180030 66 98 7.0 13.0 0.00 0.00 0.00 100 1017.2
20240419174533 66 114 4.0 14.0 0.00 0.00 0.00 100 1017.5
20240419173022 66 77 9.0 15.0 0.00 0.00 0.00 100 1017.4
20240419171519 65 110 6.0 13.0 0.00 0.00 0.00 100 1017.8
20240419170013 65 87 8.0 13.0 0.00 0.00 0.00 100 1018.0
20240419164508 65 100 6.0 12.0 0.00 0.00 0.00 100 1017.9
20240419163004 64 335 4.0 10.0 0.00 0.00 0.00 100 1018.1
20240419161600 63 102 7.0 13.0 0.00 0.00 0.00 100 1018.2
20240419160059 63 329 3.0 13.0 0.00 0.00 0.00 100 1018.5
20240419154550 62 71 3.0 13.0 0.00 0.00 0.00 100 1018.6
20240419153046 62 109 3.0 8.0 0.00 0.00 0.00 100 1018.9
20240419151542 61 105 4.0 10.0 0.00 0.00 0.00 100 1018.9
20240419150044 61 77 5.0 12.0 0.00 0.00 0.00 100 1019.0
20240419144540 59 79 6.0 12.0 0.00 0.00 0.00 100 1019.3
20240419143037 58 98 8.0 11.0 0.00 0.00 0.00 100 1019.3